| |
Missouri Department of Transportation

Social Media Facebook Twitter Flickr Blog YouTube RSS

Current AWOS Information

 
AWOS Home - General Info for all Airports
Current AWOS for all Airports - Current METAR for all Airports
Glossary - Disclaimer - Other Links


MEXICO--MEXICO MEMORIAL--KMYJ
 
Recent AWOS History
 
12/22/14     01:12 AM CST      07:12 GMT
Air Temperature 41°F (5°C ) 1st Cloud Layer Overcast at 4,300 feet
Dew Point 38°F (3°C) 2nd Cloud Layer  
Barometric Pressure 29.85 in Hg. 3rd Cloud Layer  
Wind Speed 9 mph (8 knots) Density Altitude  
Peak Wind Gusts   Variable Wind Directions  
Wind Direction Quadrant(130°) Variable Visibility  
Visibility 10 statute miles  

Thunderstorm and Precipitation Identification: 
Thunderstorm Remarks: 

Current METAR Record: METAR KMYJ 220659Z AUTO 14008KT 10SM OVC043 05/03 A2986 RMK AO2

 

 

 

About Us
How Do I...
Contact Us
Missouri Department of Transportation
Central Office
105 W. Capitol Avenue
Jefferson City, MO 65102
1-888-ASK-MODOT (275-6636)
1-866-831-6277 (Motor Carrier Services)
Drivers License Offices
horz_bar
| | |
Missouri State Government
© 2013 Missouri Department of Transportation. All Rights Reserved.   Privacy Policy.
 
 
 
 
RSS FeedYoutubeBlogFlickrTwitter Facebook